Regional Weather Roundup
Issued by NWS Cleveland, OH

Home | Current Version | Previous Version | Graphics & Text | Print | Product List | Glossary On
Versions: 1 2 3 4 5 6 7 8 9 10 11 12 13 14 15 16 17 18 19 20 21 22 23 24 25 26 27 28 29 30 31 32 33 34 35 36 37 38 39 40 41 42 43 44 45 46 47 48 49 50
002
ASUS41 KCLE 271110
RWRCLE
OHIO REGIONAL WEATHER ROUNDUP
NATIONAL WEATHER SERVICE WILMINGTON, OH
700 AM EDT TUE SEP 27 2016

NOTE: "FAIR" INDICATES FEW OR NO CLOUDS BELOW 12,000 FEET WITH NO
SIGNIFICANT WEATHER AND/OR OBSTRUCTIONS TO VISIBILITY.

OHZ001>008-015>018-024>027-034-035-043-044-271200-
   NORTHWEST OHIO

CITY           SKY/WX    TMP DP  RH WIND       PRES   REMARKS
DEFIANCE       FAIR      50  39  66 SW8       29.87F
FINDLAY        FAIR      49  40  71 S10       29.89F
TOLEDO EXPRESS FAIR      50  41  71 SW8       29.85F
TOLEDO EXEC    FAIR      50  41  71 SW9       29.87F
LIMA           FAIR      49  42  77 S10       29.92F
$$

OHZ009>014-019>023-028>033-038-089-271200-
   NORTHEAST OHIO

CITY           SKY/WX    TMP DP  RH WIND       PRES   REMARKS
CLE-HOPKINS    FAIR      52  41  66 S12       29.92F
CLE-LAKEFRONT  FAIR      55  42  61 S13       29.88F
CUY CO. ARPT   CLEAR     54  45  71 S9        29.90
LORAIN-ELYRIA  FAIR      47  40  76 SW8       29.91S
ASHTABULA      FAIR      50  46  86 SW8       29.91S
AKRON-CANTON   FAIR      47  44  90 SW8       29.95R
WOOSTER        FAIR      48  45  89 SW8       29.95S
MANSFIELD      FAIR      48  43  82 S9        29.94S
YOUNGSTOWN     FAIR      49  46  90 S7        29.93S
$$

OHZ042-051>053-060>062-070>072-077>081-271200-
  SOUTHWEST OHIO

CITY           SKY/WX    TMP DP  RH WIND       PRES   REMARKS
CINC-COVINGTON FAIR      49  48  97 S6        30.00F
CINC-LUNKEN    FAIR      46  46 100 CALM      30.01F
HAMILTON       FAIR      43  41  93 CALM      30.00F FOG
DAYTON         FAIR      50  44  80 SW10      29.98S
WRIGHT-PAT AFB FAIR      49  47  93 SE6       29.97F
DAYTON GENERAL FAIR      48  44  86 S5        29.98F
WILMINGTON     FAIR      46  46 100 S5        29.99F
$$

OHZ036-037-039>041-045>050-054>059-063>069-073>076-082>088-271200-
  CENTRAL AND SOUTHEAST OHIO

CITY           SKY/WX    TMP DP  RH WIND       PRES   REMARKS
COLUMBUS       FAIR      49  49 100 SE6       29.98S
OSU AIRPORT    FAIR      48  47  96 SW5       29.97S
BOLTON FIELD   FAIR      46  45  97 SW6       29.99S
RICKENBACK AFB FAIR      47  47  99 S6        29.98S
NEWARK         FAIR      43  42  97 CALM      29.98S FOG
MARION         FAIR      48  44  86 S10       29.94F
LANCASTER      FAIR      48  46  93 S5        29.99S
ZANESVILLE     FAIR      48  46  93 S5        29.99R
NEW PHILLY     FAIR      48  47  96 CALM      29.98S
$$




USA.gov is the U.S. government's official web portal to all federal, state and local government web resources and services.